RH
41 39 37 35 32 30 28 27 27 29 29 28 26 26 27 27 27 29 31 32 34 37 42 49 54 55 56 56 56 55 56 56 55 55 54 53 53 53 53 51 50 49 48 48 48 48 50 50 51 52 52 52 52 52 51 52 53 52 50 48 47 44 41 39 36 34 31 28 27 24 21 19 18 20 21 23 23 21 24 31 39 47 43 39 45 40 31
43 41 39 36 34 31 30 28 28 28 28 27 27 26 26 26 26 28 31 33 35 37 41 48 53 56 58 60 59 58 58 60 60 60 59 58 57 56 56 55 53 52 51 51 50 50 52 51 50 53 55 53 52 53 54 54 53 51 48 46 43 39 36 34 31 29 27 25 25 25 25 24 25 26 24 24 22 19 19 21 21 22 21 29 44 42 37
45 42 40 37 35 33 31 29 27 27 26 25 25 26 26 25 24 26 30 31 33 37 41 46 51 54 60 63 62 62 61 61 62 63 63 61 60 61 60 57 56 55 53 53 53 53 55 55 52 53 55 54 52 53 54 54 52 49 45 41 36 32 30 28 27 26 26 25 23 23 24 23 23 22 19 18 18 16 16 16 15 16 14 17 27 26 23
47 45 42 40 38 35 32 30 27 26 25 24 24 24 25 25 25 26 28 29 31 35 41 47 49 53 60 62 63 66 65 63 63 63 63 61 61 61 60 58 58 57 56 57 57 55 57 60 58 57 57 56 53 52 53 51 48 44 39 34 31 29 27 26 25 24 24 24 22 19 19 18 16 16 15 15 15 14 13 12 12 13 12 12 15 15 16
49 48 46 44 41 38 34 31 29 27 26 25 23 23 23 24 25 26 28 28 29 32 39 45 48 53 59 61 64 70 71 68 67 67 65 65 64 62 61 60 60 59 59 62 62 61 62 64 64 63 62 60 56 54 52 48 43 38 34 31 29 27 26 24 23 23 23 22 20 17 15 14 13 14 14 13 12 10 10 11 10 9 10 9 8 9 12
48 50 49 47 45 42 38 35 32 30 28 26 24 23 23 24 25 26 28 28 27 31 36 42 49 55 60 64 68 74 77 76 74 73 72 71 68 66 65 65 65 65 66 67 67 68 68 66 66 66 65 63 59 53 48 43 38 34 31 29 28 25 23 20 18 20 19 16 15 14 13 14 15 14 13 11 10 9 8 7 7 15 25 23 18 18 16
45 46 48 48 48 46 43 40 37 34 32 29 26 25 24 25 25 27 28 28 29 33 35 41 49 56 62 69 73 77 82 83 81 79 77 76 74 72 71 70 70 72 72 72 73 71 69 69 67 65 63 59 53 47 42 37 34 32 27 26 25 21 17 15 15 15 15 14 15 15 15 15 15 14 11 9 6 5 6 5 3 17 35 36 31 31 21
43 44 45 46 46 46 45 43 41 38 35 31 29 27 27 26 26 27 29 30 30 34 38 44 51 56 61 70 77 82 86 86 84 83 81 79 77 76 76 75 74 75 75 75 75 71 69 67 63 59 55 50 45 41 37 32 29 26 22 19 18 17 14 14 14 14 16 17 17 15 14 13 12 10 8 6 6 4 4 6 3 7 21 25 26 31 24
44 45 45 45 45 46 45 44 43 40 37 33 31 30 29 29 28 28 30 31 33 37 42 49 58 62 63 69 77 82 87 88 87 85 83 81 80 79 79 79 78 77 75 73 70 66 63 59 55 51 47 43 39 34 29 26 22 20 19 18 17 17 17 17 17 18 21 22 18 12 10 8 7 8 7 4 4 4 4 6 5 5 11 15 21 32 32
46 46 47 47 46 46 46 46 45 42 38 34 33 31 31 31 30 30 31 33 36 42 46 52 63 68 70 76 79 80 84 88 90 90 87 85 85 84 82 81 79 76 72 68 64 60 56 52 48 44 39 35 30 25 23 23 20 20 20 19 19 19 19 20 18 16 20 20 13 7 7 7 6 7 6 5 8 14 19 22 22 20 21 20 20 27 30
49 49 49 48 47 47 48 48 47 42 38 35 34 33 32 32 33 33 35 37 40 46 52 58 66 75 82 87 88 88 90 91 91 93 92 90 90 88 84 81 77 72 68 64 59 54 50 45 41 37 33 30 27 26 25 24 23 24 22 20 22 21 18 17 14 11 14 13 9 6 5 5 7 6 7 15 23 26 27 28 25 23 22 20 18 20 22
51 51 51 50 49 49 50 50 48 42 38 37 35 34 34 34 37 39 42 46 48 51 59 65 73 84 93 95 95 98 99 97 95 96 94 93 92 88 83 79 72 66 62 55 48 44 41 38 36 34 32 31 30 29 29 28 27 26 24 23 21 16 13 11 9 8 8 4 7 12 9 4 6 12 20 27 27 23 20 18 17 17 16 15 14 14 16
55 54 53 52 52 52 52 51 46 41 39 37 36 36 36 38 43 47 50 54 56 59 66 74 82 91 96 98 100 102 101 100 99 97 94 93 90 85 80 74 66 60 55 49 44 42 39 38 38 36 35 34 33 32 31 31 29 26 24 21 16 14 16 14 12 15 20 22 26 26 22 17 17 24 33 31 22 19 20 18 18 18 17 16 14 13 13
57 55 54 54 54 54 51 47 44 41 39 37 35 36 37 40 48 57 61 63 65 68 73 81 90 96 99 101 102 102 101 101 99 96 93 91 86 78 73 68 63 59 54 51 48 45 44 42 41 39 38 36 34 33 32 30 28 24 21 15 12 16 21 21 21 22 30 46 53 45 39 36 29 31 40 36 26 23 22 18 18 19 17 16 16 15 14
59 58 57 56 54 51 48 45 42 40 37 37 37 37 39 43 54 66 73 74 76 79 82 89 96 101 102 102 102 102 102 100 98 95 92 88 82 74 67 64 62 58 54 52 50 47 46 45 43 42 40 37 34 32 31 28 25 22 17 13 16 20 19 24 35 36 39 51 57 52 50 43 31 31 36 32 26 25 23 20 19 19 18 17 16 15 15
61 58 56 53 50 48 45 42 40 38 38 39 40 41 44 53 65 78 86 88 90 92 94 97 101 103 102 101 102 101 101 99 96 92 86 82 77 71 66 62 59 57 55 53 51 50 48 46 44 43 40 37 34 30 28 24 20 17 14 13 21 27 25 25 30 33 42 53 53 50 47 37 33 37 35 28 25 25 24 22 18 17 18 19 19 18 17
59 55 51 49 47 44 41 39 37 38 41 44 47 50 56 64 74 86 95 98 98 99 99 100 102 103 102 102 102 101 98 95 90 85 81 78 75 71 67 63 61 59 58 55 53 51 48 46 44 42 38 35 31 27 24 21 17 16 15 15 25 40 50 53 43 32 35 43 45 46 42 36 39 42 36 31 27 23 24 26 22 18 20 22 25 23 20
55 52 48 46 44 41 41 41 41 43 47 52 58 65 71 74 78 86 93 97 97 98 100 101 102 102 102 102 100 98 95 91 86 83 81 78 74 71 67 64 62 60 57 54 52 49 47 45 42 39 35 32 28 24 22 20 18 16 16 20 28 36 47 59 60 52 47 45 46 49 44 37 39 38 33 32 27 23 29 32 26 22 26 29 28 25 20
54 51 48 46 45 45 46 47 49 54 58 62 66 73 77 80 82 86 90 92 93 95 98 101 102 102 101 99 97 95 91 85 80 76 73 70 67 64 62 60 59 56 54 53 50 48 47 44 40 38 34 29 28 26 23 20 19 19 22 28 33 34 38 46 53 56 59 59 62 65 56 44 39 38 37 37 32 29 32 31 25 22 24 25 24 21 20
54 52 50 49 49 49 51 54 57 61 64 66 69 74 78 84 90 94 94 94 94 95 98 101 100 98 95 92 87 84 79 72 67 64 62 59 58 58 57 57 57 56 56 54 51 49 46 41 39 37 32 29 31 32 29 23 22 26 33 40 45 48 48 48 49 54 61 66 71 70 56 41 37 36 34 32 31 31 29 25 25 26 25 25 24 22 21
55 53 50 49 49 50 51 53 58 62 65 69 72 77 84 92 98 100 99 97 95 93 94 94 90 86 83 79 75 71 67 64 62 59 58 58 58 58 58 57 57 57 56 55 52 50 47 43 40 38 35 34 35 36 35 31 27 32 43 52 56 53 51 53 55 60 67 69 65 61 55 49 49 51 53 50 45 42 38 30 28 29 28 27 25 23 24
52 49 47 47 48 50 55 62 69 76 81 84 85 87 91 95 97 97 96 95 92 89 88 87 83 80 77 74 71 69 67 66 64 61 60 58 57 58 56 55 57 58 57 57 55 54 52 48 43 42 43 41 39 41 43 41 38 40 47 53 50 45 48 55 54 53 58 54 46 51 62 64 61 63 69 66 55 48 44 37 31 32 31 27 23 21 23
48 48 50 53 58 66 75 83 88 91 92 92 91 90 90 90 90 90 90 89 87 85 84 82 80 78 76 74 72 70 67 64 60 58 57 55 53 53 54 58 62 60 58 60 60 57 57 53 48 48 49 48 50 51 49 48 47 44 45 47 44 40 46 50 44 43 48 42 38 50 61 61 58 59 60 56 48 43 43 39 33 33 35 31 26 24 25
51 56 63 70 77 83 88 90 91 90 89 88 87 86 85 83 82 82 82 81 79 77 76 75 73 71 69 68 65 62 60 59 56 55 54 51 48 49 53 62 65 60 59 65 67 66 65 61 60 60 56 54 59 58 53 54 53 51 51 52 49 50 54 52 48 51 52 40 39 56 64 61 61 62 58 59 58 53 50 47 40 36 35 31 27 25 24
65 71 77 81 84 85 85 85 84 82 81 79 77 75 72 69 67 65 63 62 60 58 56 54 53 54 56 58 57 54 54 57 60 61 60 57 53 52 56 63 65 63 69 76 77 77 75 70 70 70 63 61 65 64 62 62 60 60 60 55 55 62 60 49 49 60 61 47 44 61 70 64 59 57 57 61 61 55 52 52 48 44 42 35 28 24 21
77 80 82 82 81 79 77 74 70 66 63 61 57 54 51 48 46 44 44 48 51 48 40 35 37 42 47 52 55 55 56 59 60 63 66 66 65 63 63 67 70 75 83 88 88 90 88 82 78 75 72 74 76 73 72 72 71 69 60 52 63 71 56 48 61 72 64 51 46 55 61 53 44 44 45 45 45 43 42 44 43 42 40 35 28 24 21
81 80 78 74 70 65 59 54 50 47 46 45 44 43 42 40 38 39 43 51 57 55 44 34 34 39 42 46 49 53 57 59 58 58 60 63 66 67 67 70 75 81 90 96 98 99 96 90 89 87 86 88 87 81 78 79 80 72 53 49 69 73 52 57 82 77 52 42 41 40 39 33 26 27 27 25 26 26 26 28 31 32 32 32 29 26 25
71 65 59 53 47 43 39 37 37 38 39 41 42 42 41 40 40 42 47 53 56 55 49 41 38 38 37 37 41 47 50 50 49 50 51 53 57 60 61 64 68 73 81 88 92 93 91 90 91 91 91 96 94 85 81 82 77 61 43 47 69 69 51 55 66 51 33 32 30 24 23 21 18 18 18 16 17 17 15 16 18 19 21 24 25 27 27
44 38 34 31 30 29 31 33 37 40 43 44 45 45 44 42 42 43 45 45 44 43 41 38 35 33 31 31 34 37 39 39 38 39 41 43 44 46 47 50 53 56 61 64 67 73 77 79 80 81 85 94 95 83 75 75 66 46 34 42 54 49 38 37 36 28 25 26 22 18 18 16 13 15 15 14 15 16 16 15 15 15 15 16 18 21 23
28 27 27 29 32 35 39 42 44 45 45 43 42 41 38 36 35 35 34 33 36 40 41 36 32 29 27 28 29 29 30 33 33 33 34 34 35 35 37 39 39 40 43 45 47 52 57 59 64 71 79 90 95 81 63 57 49 32 25 32 35 29 26 27 25 25 29 29 24 20 16 13 14 16 17 17 20 22 22 20 19 19 17 14 13 14 17
30 33 35 38 40 41 41 40 39 37 35 34 32 31 29 29 29 30 31 34 38 39 38 34 34 34 31 27 26 27 29 31 35 40 42 39 38 39 38 36 36 37 37 38 38 39 40 42 50 59 67 79 87 75 54 42 33 20 18 25 27 24 25 28 29 32 36 35 29 23 18 17 19 20 19 21 23 23 23 22 22 24 22 18 14 12 12
35 36 36 35 34 33 31 30 29 27 26 26 25 24 24 24 24 26 29 31 33 39 47 49 48 46 41 34 30 30 34 42 54 66 67 63 63 64 58 51 49 46 41 38 37 35 34 38 44 48 51 57 61 52 39 30 23 19 22 28 28 27 30 33 34 36 37 33 29 25 22 20 20 21 23 23 24 27 29 29 32 36 31 22 17 14 11
30 28 27 26 25 25 24 23 23 23 23 23 23 24 29 33 33 33 34 33 38 57 77 84 78 67 55 49 50 53 57 67 81 90 91 90 93 94 87 79 73 63 50 41 38 35 35 38 40 39 40 45 44 35 26 24 24 26 28 28 26 27 31 33 33 32 31 29 27 23 21 23 26 29 32 35 37 42 47 47 45 43 36 26 19 13 10
23 23 22 22 22 22 22 23 24 25 26 26 29 35 43 47 45 42 44 47 51 60 71 80 88 86 75 70 77 83 83 88 96 100 101 102 103 102 99 94 87 76 63 52 46 40 35 36 38 38 38 38 36 29 27 30 34 33 30 25 23 25 28 28 27 27 26 26 26 25 26 32 38 45 54 62 61 61 66 65 54 39 29 23 17 11 11
20 20 21 22 22 23 25 26 26 28 28 29 30 34 39 40 38 39 43 48 52 57 62 73 89 97 92 88 94 97 94 95 99 102 100 99 100 100 96 89 82 76 68 59 49 40 38 40 43 40 34 34 38 41 41 43 44 39 32 26 22 23 25 25 25 28 31 32 33 34 37 44 52 63 80 91 89 81 77 73 59 39 25 19 18 15 12
19 20 22 24 26 27 28 28 29 29 28 29 32 35 39 43 48 52 54 56 61 63 62 69 88 101 97 89 90 95 99 100 101 103 103 100 99 94 83 73 70 67 59 51 45 44 48 50 45 38 37 47 59 61 53 49 52 50 44 36 31 28 29 31 33 36 39 40 40 43 48 56 66 74 83 95 104 99 83 67 56 41 25 21 23 20 15
23 25 28 30 32 32 30 31 33 33 35 40 47 53 58 64 72 79 82 86 89 82 67 68 86 97 92 84 85 93 100 102 101 103 102 97 91 81 66 59 62 62 55 51 51 52 51 47 46 53 63 70 75 75 70 69 74 78 76 71 64 54 46 42 42 44 47 51 56 63 69 73 77 78 75 81 98 105 86 61 46 36 25 21 23 21 20
34 37 39 38 35 32 31 36 44 49 56 65 69 70 72 76 82 90 95 95 94 87 76 76 85 87 86 91 98 102 104 101 98 97 93 85 79 72 64 63 70 70 63 60 60 56 53 55 65 83 92 87 84 89 90 84 82 85 86 84 79 71 63 61 64 69 76 83 88 91 93 91 87 82 76 75 87 97 83 55 38 30 25 21 21 21 20
46 44 39 35 35 37 44 55 62 65 71 76 74 70 72 75 78 84 90 91 90 86 80 80 87 91 95 100 102 100 99 95 92 92 90 83 80 79 77 79 78 69 64 70 71 64 65 78 90 98 100 97 97 102 99 91 89 92 90 84 81 83 86 91 93 95 98 101 96 92 95 98 94 86 78 74 77 82 74 57 46 39 28 20 21 22 19
47 40 37 41 52 62 68 71 70 68 71 73 68 63 65 71 77 82 86 90 95 93 84 84 94 102 102 100 96 96 99 99 97 95 88 81 81 84 83 80 75 67 72 87 88 75 74 90 100 99 99 101 102 103 102 99 99 101 99 94 92 94 97 98 98 96 99 102 96 90 94 101 97 87 77 69 64 65 64 61 58 49 34 24 22 21 20
42 40 48 62 74 78 75 70 68 68 66 64 65 67 69 74 83 90 90 92 99 99 94 95 102 104 101 99 99 100 100 94 88 85 83 83 88 89 80 76 80 85 92 99 97 87 88 99 102 100 101 103 100 98 99 98 94 91 89 87 84 82 83 86 90 94 96 97 95 96 101 100 90 79 73 65 57 56 58 59 57 50 40 31 27 26 27
41 51 67 80 85 78 66 59 60 61 58 59 69 81 87 88 92 97 97 96 99 101 100 101 104 103 100 100 100 97 90 81 76 80 89 95 97 92 85 85 93 99 100 101 99 98 101 104 101 98 96 94 90 91 94 93 89 86 85 82 77 75 78 81 83 87 91 91 90 94 97 92 82 75 72 66 59 54 54 55 54 47 39 35 34 33 30
56 66 72 80 82 72 58 54 55 54 58 71 84 92 95 96 97 99 99 97 98 100 101 100 99 97 93 90 87 83 80 79 83 92 100 101 99 97 96 98 101 101 100 100 101 102 102 101 99 96 90 85 89 95 96 89 84 85 88 87 79 72 69 67 66 75 86 91 91 92 91 87 83 79 74 71 66 58 51 51 51 45 38 38 36 32 32
70 66 59 62 69 65 57 60 63 58 64 86 101 99 94 96 97 97 98 98 96 97 98 96 91 87 83 81 81 82 84 89 96 100 101 100 102 102 101 101 101 100 100 101 102 102 101 100 100 100 96 94 97 99 94 85 78 76 78 79 73 66 63 64 69 79 86 88 91 97 95 87 83 80 78 78 73 58 43 42 45 42 37 34 34 39 56
79 70 54 48 57 64 67 75 80 75 76 92 102 96 92 96 97 95 95 95 92 90 91 89 86 84 86 89 92 95 96 98 100 100 99 100 101 101 100 100 101 100 101 101 100 99 100 100 99 98 95 93 94 93 90 87 82 74 70 75 81 84 85 87 90 93 91 89 94 100 93 81 77 79 78 74 64 47 34 34 37 33 32 37 48 67 88
82 72 53 42 51 68 77 82 86 83 80 85 89 88 90 96 97 95 97 99 96 93 91 89 87 90 95 99 100 100 100 99 99 100 100 101 100 99 100 101 100 100 102 102 98 95 96 97 97 93 88 86 90 95 97 96 93 87 85 91 97 98 98 99 100 100 98 96 97 98 94 87 82 77 70 61 49 34 25 27 29 32 43 61 78 92 101
73 56 42 40 56 75 81 77 77 77 78 83 88 90 92 95 95 96 99 102 101 99 97 96 97 99 100 100 100 100 100 100 101 101 100 100 100 100 99 99 100 100 101 100 99 97 92 85 84 85 82 78 83 94 100 99 99 99 99 100 101 100 99 101 102 102 101 99 96 95 95 90 79 66 56 47 36 24 22 32 44 57 73 87 95 99 100
79 61 48 47 61 74 74 68 66 71 78 86 89 89 90 94 96 98 100 101 100 100 100 100 100 100 100 99 100 100 99 100 101 101 100 101 101 97 94 97 101 101 99 98 101 99 87 71 62 64 63 61 71 90 101 101 100 100 99 99 100 100 100 100 101 102 103 99 90 83 80 76 64 49 39 32 30 34 46 60 71 82 92 97 100 101 101
83 76 65 59 61 64 65 66 72 80 85 88 88 88 92 96 98 99 100 100 100 100 100 100 100 100 100 100 101 100 99 100 100 99 99 102 101 96 94 98 100 99 99 99 93 80 64 48 40 40 42 46 61 85 100 100 98 100 101 100 101 102 101 101 102 104 101 91 76 65 60 56 46 36 33 39 49 61 72 79 85 93 100 99 96 96 98
66 68 64 59 58 61 67 76 87 94 96 95 95 96 99 101 101 101 100 99 99 100 100 100 100 100 99 100 101 100 99 100 100 99 100 102 97 88 85 90 94 97 100 93 72 49 36 30 27 29 32 36 52 79 99 102 99 100 101 99 100 102 101 99 100 103 99 87 73 61 52 45 40 40 48 59 67 72 80 87 92 96 100 97 90 87 89
50 54 56 59 66 76 86 93 97 100 101 100 100 100 100 98 97 97 97 96 97 100 101 99 99 100 100 100 100 100 100 101 102 101 101 97 87 78 81 91 99 99 91 69 42 27 25 25 23 24 26 28 42 71 97 103 98 98 102 102 101 102 102 99 99 100 98 89 78 66 54 46 46 53 62 67 69 73 84 94 94 92 95 99 96 90 84
60 67 74 82 89 94 97 98 98 100 101 97 94 95 96 91 87 90 94 95 96 98 96 95 97 100 100 100 100 99 98 99 100 98 97 94 89 88 94 100 95 80 59 38 25 23 25 21 16 18 21 21 30 58 89 103 100 97 101 101 97 95 98 101 101 101 100 96 91 84 74 67 67 72 78 82 83 84 90 95 95 93 95 101 102 95 84
Wind_Speed
42 43 43 42 42 42 41 41 40 40 40 40 40 41 41 41 41 41 41 41 41 41 42 41 41 41 41 40 40 40 40 40 40 41 41 42 42 42 42 42 41 41 41 41 41 40 41 41 41 41 41 41 41 42 42 42 42 41 42 43 42 42 43 45 45 45 44 46 47 47 47 47 47 49 49 49 49 49 50 49 48 48 49 49 51 53 50
44 44 44 44 43 43 43 42 42 41 41 41 41 42 43 43 43 43 42 42 42 42 42 42 42 42 41 41 41 41 41 41 42 42 43 43 44 44 43 43 43 43 43 43 43 43 43 44 44 44 44 44 44 44 44 44 44 44 44 44 44 44 45 46 47 46 46 47 48 49 49 50 51 52 52 51 52 54 55 56 58 60 60 56 56 58 55
45 45 45 45 45 45 44 43 43 43 43 43 43 43 43 44 44 44 43 43 43 43 43 43 43 43 42 42 43 42 42 43 43 43 44 45 45 45 45 45 44 44 44 45 45 45 45 46 46 46 47 47 47 46 46 46 46 46 46 46 46 46 46 48 48 48 48 48 49 50 51 53 53 53 54 53 53 56 58 60 63 65 66 66 66 67 64
47 46 46 46 46 46 46 45 45 45 45 44 44 44 44 44 44 44 44 44 44 44 44 43 44 44 43 44 44 43 43 44 44 44 45 45 45 46 46 46 46 46 46 46 46 46 46 47 48 48 49 50 49 49 48 48 49 48 47 47 47 48 49 49 50 50 50 49 50 51 53 54 54 54 54 54 55 59 62 66 68 69 72 75 74 74 74
48 48 48 48 48 47 47 47 46 46 46 46 45 45 45 45 46 46 45 45 45 45 45 45 45 45 45 45 45 44 45 45 45 45 46 46 46 47 47 47 47 48 47 47 48 48 48 48 49 49 50 50 51 50 50 50 50 49 49 49 49 50 51 51 52 52 51 51 52 53 55 56 57 57 57 58 61 65 68 72 74 75 78 80 79 80 83
50 50 50 49 49 49 49 49 49 48 48 47 46 46 46 47 47 47 47 48 47 47 46 46 46 46 46 46 46 46 46 47 47 47 47 47 47 48 48 48 48 48 48 49 49 49 50 50 50 50 50 51 51 51 50 51 50 50 51 51 51 52 52 53 55 54 53 53 54 56 58 59 60 61 62 63 66 69 73 77 79 74 71 74 76 77 81
51 51 52 52 51 51 51 51 51 50 50 49 48 48 48 48 49 49 49 50 49 49 49 48 48 48 47 47 47 47 47 47 48 48 47 48 48 49 49 49 49 49 49 49 50 50 51 50 50 50 50 50 51 51 51 52 52 52 52 53 52 52 54 55 56 56 54 54 57 60 62 63 64 65 65 67 70 74 77 78 77 69 63 64 67 69 72
52 52 52 52 53 52 52 53 53 52 51 50 49 49 50 50 50 51 51 51 52 51 51 51 50 50 50 49 48 48 48 48 48 48 48 49 49 49 50 50 50 50 50 50 50 51 50 50 50 50 50 50 51 51 52 52 53 53 53 53 53 53 54 56 57 58 56 56 60 64 65 66 67 67 66 68 71 74 73 71 69 66 61 59 61 62 64
52 52 53 53 53 53 53 54 54 53 52 51 51 51 52 52 52 53 53 53 53 53 53 52 52 52 52 51 50 50 49 49 49 49 49 50 50 50 50 50 51 51 51 50 51 51 49 49 50 50 50 51 51 52 52 52 52 53 53 54 54 54 55 56 58 60 59 58 61 65 66 68 68 66 67 70 71 68 64 61 61 60 56 54 55 56 54
53 53 53 54 54 54 55 55 55 54 52 52 53 54 54 55 55 55 55 55 55 55 54 53 53 54 53 53 52 52 52 51 50 50 50 50 50 50 50 50 51 50 50 51 50 50 50 50 50 51 50 50 51 51 51 51 52 53 53 54 54 55 57 58 60 63 61 60 62 65 66 68 67 65 65 65 61 56 53 51 49 46 45 46 48 49 48
54 54 54 55 55 56 56 56 55 54 54 54 55 56 57 57 57 57 57 56 56 56 55 55 55 54 54 54 54 54 54 53 53 52 52 51 50 50 50 50 50 50 51 50 50 50 50 50 50 51 51 51 51 52 52 52 52 52 53 54 55 56 58 58 60 62 62 60 62 64 67 67 64 60 58 55 49 46 45 44 41 40 39 40 42 43 44
55 55 56 56 57 57 57 56 56 56 56 57 58 59 59 60 60 59 58 58 57 57 57 56 56 55 55 55 55 55 55 55 54 54 53 52 51 50 50 50 50 51 50 49 49 49 49 49 50 51 51 52 52 53 53 52 52 53 54 55 56 57 57 57 58 60 60 60 60 61 65 63 56 50 49 48 44 41 41 40 38 37 36 36 38 39 40
56 57 57 57 57 57 57 57 57 59 60 60 61 62 62 62 62 61 60 59 58 58 58 57 57 56 56 56 55 55 55 55 55 55 54 53 52 51 51 51 50 50 50 48 49 49 49 50 51 51 52 53 53 53 52 52 52 53 54 55 56 55 54 55 56 55 54 53 52 54 56 52 45 43 42 42 39 37 37 37 35 34 33 33 34 36 38
58 58 58 58 58 57 58 58 60 62 64 64 64 64 64 64 64 63 62 60 60 59 59 58 58 57 57 56 56 55 55 55 55 54 53 52 52 51 51 51 50 50 49 49 50 50 50 51 52 52 52 53 53 53 52 52 52 52 53 54 53 51 50 51 51 50 48 45 44 45 47 43 38 38 37 36 35 34 36 36 34 33 34 33 33 36 37
59 59 59 59 59 59 60 61 63 65 66 67 66 66 66 66 65 64 63 61 61 60 60 59 58 57 57 56 56 55 55 55 54 53 52 51 50 50 50 50 50 50 50 50 50 50 51 52 52 53 53 52 53 53 52 52 52 52 52 52 50 48 48 48 46 45 44 43 42 42 43 40 39 39 37 34 33 33 34 34 33 33 34 33 34 36 37
59 60 60 61 62 63 63 65 66 67 67 67 67 67 67 66 65 64 62 61 60 60 59 58 57 57 57 56 56 55 54 53 52 51 50 50 49 48 49 49 49 49 50 50 51 51 52 53 53 53 53 53 53 53 52 52 52 51 51 50 47 45 46 46 46 45 43 42 42 41 40 39 40 39 37 35 33 33 34 34 33 34 34 33 33 36 37
61 62 63 63 65 66 66 67 67 67 67 67 67 67 67 65 64 62 60 59 59 58 58 57 57 56 56 56 55 54 53 51 50 49 49 49 48 48 48 49 49 50 50 50 51 52 53 54 54 54 53 52 52 53 52 51 52 51 50 49 45 41 39 40 43 45 43 42 43 41 38 38 38 37 37 37 36 34 35 35 34 34 35 34 33 35 36
63 64 65 65 66 67 67 67 67 66 66 66 66 65 64 63 61 59 58 57 57 56 56 56 55 55 55 54 53 52 51 49 49 48 47 48 48 48 49 50 50 51 51 51 52 53 54 54 53 53 52 51 52 54 52 51 51 51 50 49 46 42 40 39 40 40 39 41 42 41 39 38 38 37 38 39 39 37 37 36 35 36 37 35 34 35 35
64 65 65 66 66 67 67 67 66 65 64 64 63 62 61 60 59 57 57 56 56 56 55 54 54 53 53 53 51 50 48 47 47 47 47 48 49 49 50 50 51 52 53 53 53 53 53 53 52 52 52 51 52 53 52 51 51 51 50 49 47 45 43 43 42 41 39 39 40 40 40 39 38 38 39 40 40 39 38 38 38 39 39 37 37 36 36
65 65 65 65 66 66 65 65 64 63 62 61 60 59 59 58 57 56 56 55 55 55 53 52 52 51 51 50 48 48 47 47 48 49 50 51 51 50 51 52 52 52 53 53 53 53 53 52 52 52 52 51 51 53 52 52 51 50 49 48 46 44 44 45 44 43 40 39 39 41 42 42 41 41 42 43 42 41 40 40 41 40 39 38 38 37 37
64 64 64 64 64 63 63 62 61 61 60 59 58 58 57 56 55 54 54 54 53 52 51 51 50 49 49 48 48 49 49 50 51 52 52 52 53 53 53 53 53 53 52 51 52 52 53 52 52 52 52 52 52 53 53 52 50 48 47 47 45 44 44 45 43 42 41 41 40 39 40 41 41 39 39 41 41 40 40 41 41 40 40 40 40 39 38
63 63 63 62 62 62 61 61 60 59 59 59 57 56 55 53 52 52 52 52 52 51 50 50 49 48 49 50 51 52 52 53 54 54 55 55 55 55 54 53 52 51 51 51 52 52 52 53 52 52 53 53 54 54 53 52 50 47 46 47 46 44 43 43 42 42 43 43 41 39 39 41 41 39 38 39 40 40 41 42 41 42 42 43 43 43 41
62 62 62 61 61 60 59 59 58 57 57 56 55 54 52 51 52 52 52 53 53 52 52 51 51 51 52 53 54 55 55 56 56 56 56 56 55 54 53 51 51 51 50 51 53 52 53 53 53 53 53 52 53 53 51 51 49 46 46 47 46 44 44 45 46 47 47 47 45 44 44 45 45 45 44 44 44 44 44 44 43 43 43 45 46 45 43
61 61 60 60 59 58 57 56 56 56 56 55 55 54 53 53 54 55 56 56 57 56 55 54 54 54 54 56 58 58 57 57 56 55 55 55 54 53 52 50 51 50 50 52 53 53 53 53 53 53 52 51 52 52 50 50 49 47 48 48 47 46 47 48 49 50 50 49 48 48 48 48 48 48 48 48 48 47 46 46 46 45 45 47 48 47 45
60 59 58 58 57 56 56 56 56 57 57 57 57 57 57 57 57 58 60 61 61 61 59 58 57 57 57 58 59 59 58 56 54 53 53 53 53 52 51 51 51 50 50 52 52 53 53 52 52 54 52 51 51 51 50 50 49 48 50 50 48 48 51 50 49 50 52 52 50 50 50 50 50 51 52 51 52 52 50 49 49 48 48 50 50 48 47
57 57 57 57 57 57 58 58 59 60 60 61 61 61 61 61 61 62 63 63 64 64 63 61 59 59 58 57 57 57 56 55 54 53 52 52 52 51 51 52 52 51 51 52 52 53 53 53 53 54 52 51 52 51 51 52 52 51 52 51 50 50 50 50 51 52 53 54 52 51 52 53 53 54 55 55 55 56 55 54 53 52 53 54 53 50 48
56 57 57 58 59 60 61 62 63 63 64 64 64 63 63 63 63 63 63 63 64 65 64 62 60 59 59 58 57 56 55 54 54 54 54 53 52 51 51 52 52 52 52 53 53 54 54 54 54 53 53 53 54 54 53 54 54 55 53 51 51 51 48 48 52 54 54 54 52 52 54 56 56 56 58 59 59 60 60 59 57 57 57 58 56 52 49
58 59 61 62 63 64 65 66 66 65 65 65 64 64 64 63 63 63 63 63 63 64 64 62 60 60 60 58 56 56 56 56 56 55 55 55 54 53 53 53 53 53 53 54 54 55 55 55 54 53 54 54 55 55 54 55 57 57 53 49 50 50 48 50 54 55 54 54 53 53 56 59 59 59 60 61 61 62 62 61 60 60 60 60 58 54 51
62 64 65 65 66 66 66 66 65 65 65 65 65 65 64 63 63 62 62 63 63 63 64 63 62 61 60 58 56 54 54 56 57 57 56 56 55 55 55 55 54 55 55 55 56 55 55 55 55 55 55 54 54 55 55 56 59 58 52 49 50 50 50 50 51 52 53 51 51 54 58 60 60 60 59 58 58 58 57 56 56 56 57 58 59 57 54
65 65 66 66 66 65 65 65 65 65 66 66 66 66 65 63 63 62 62 61 61 60 60 61 61 60 58 56 55 54 52 53 55 55 54 54 54 55 55 55 55 55 56 56 56 56 56 56 55 55 53 52 54 56 56 58 60 57 51 49 50 48 47 47 45 45 46 45 48 54 57 56 56 56 53 50 49 49 50 50 51 51 53 55 57 57 55
65 65 66 65 65 66 66 66 66 66 67 66 66 66 65 63 61 59 58 57 57 56 56 57 57 56 54 53 53 51 49 49 49 49 49 50 50 51 53 53 54 55 55 56 56 57 57 56 54 53 51 51 53 55 55 59 60 54 47 47 46 42 41 41 39 40 42 44 48 51 49 46 47 48 47 45 45 46 47 47 46 47 49 50 51 53 53
65 66 66 66 67 67 67 67 67 66 66 65 64 63 61 59 56 54 53 53 52 50 49 49 49 48 48 47 45 43 42 42 41 40 41 43 43 44 46 48 50 51 53 54 55 55 54 53 51 51 50 50 52 53 55 58 57 48 41 42 41 37 36 38 38 40 43 45 45 43 40 39 42 44 43 43 42 42 42 41 41 42 43 44 44 46 48
67 67 68 68 67 67 66 65 64 62 61 60 58 56 53 51 50 50 50 49 47 43 40 40 42 42 41 39 35 33 33 32 32 32 34 35 35 36 39 41 43 47 50 51 52 51 50 50 49 48 47 47 50 53 53 51 46 39 37 39 39 37 37 40 42 43 43 41 38 35 31 30 33 35 35 34 33 34 34 35 36 37 38 38 39 40 41
68 68 67 65 64 62 60 59 57 55 55 54 52 49 47 47 48 49 48 47 45 44 42 40 39 39 37 32 28 25 24 24 26 28 29 31 31 32 34 36 38 42 44 45 45 46 46 45 44 42 41 42 46 48 45 39 35 35 37 38 36 36 39 39 39 38 35 33 31 27 21 19 21 23 25 25 26 27 29 31 31 31 32 33 33 34 36
64 63 60 58 56 54 52 50 49 49 49 48 46 46 46 47 48 49 47 46 45 44 43 40 37 35 32 27 23 22 21 22 25 27 29 30 31 31 33 35 35 36 36 38 40 40 38 36 36 36 35 36 36 34 30 27 26 29 31 30 30 32 34 33 31 30 29 28 26 23 21 20 20 20 21 22 22 23 25 27 27 27 27 28 28 30 33
57 54 51 48 46 45 44 43 43 44 44 43 43 43 44 44 44 44 43 43 42 41 40 36 32 29 27 24 22 22 23 23 25 27 28 29 30 31 31 31 31 31 31 31 31 29 27 28 30 28 24 21 18 16 16 15 15 17 19 20 22 24 26 25 24 25 25 25 24 23 24 24 24 23 23 23 22 22 23 23 22 22 23 25 26 28 31
47 44 41 40 39 39 39 38 39 39 39 38 38 39 39 39 39 39 38 37 36 36 35 32 27 23 21 21 22 22 22 24 26 27 28 28 29 30 29 28 26 26 25 24 22 22 23 24 21 13 9 8 8 9 11 10 9 9 11 13 15 18 19 19 19 20 21 23 24 26 28 29 28 27 25 22 21 21 21 19 18 19 21 23 25 27 29
38 36 36 36 36 35 34 33 33 33 33 33 35 36 37 36 35 35 33 32 31 30 29 28 25 22 20 21 21 21 22 23 25 25 26 27 27 28 27 24 23 22 20 17 17 16 14 12 8 3 3 5 6 7 9 8 7 7 9 10 13 15 16 17 19 20 22 24 25 26 28 28 26 24 22 20 19 19 17 16 16 18 21 23 25 26 27
33 33 33 32 30 29 27 27 28 28 28 29 29 30 30 29 29 29 28 26 24 22 22 22 21 20 19 18 19 20 20 21 22 23 25 25 26 25 22 20 19 18 13 9 9 7 6 5 3 3 3 5 7 7 8 8 9 9 11 12 14 15 16 19 21 22 25 27 25 23 25 27 24 21 19 18 16 16 15 15 16 19 21 23 26 26 25
30 29 27 24 22 21 21 21 21 20 19 18 16 14 13 13 14 15 16 16 15 14 15 15 15 16 16 16 16 17 18 19 21 24 24 23 21 20 17 15 13 9 6 7 7 7 6 5 3 1 2 6 8 8 8 11 13 13 14 16 17 18 19 22 23 23 25 27 26 23 24 26 24 20 17 16 15 14 15 15 16 18 21 24 25 25 24
25 21 17 15 14 14 13 13 11 10 8 6 5 5 4 3 3 5 8 11 11 11 11 12 11 12 14 14 15 16 19 21 22 22 19 16 13 11 9 7 6 7 9 8 7 6 3 1 1 5 7 8 7 7 9 12 14 15 16 18 19 20 21 23 24 23 24 25 24 22 23 24 21 17 16 15 14 14 15 15 17 19 22 24 24 24 24
16 12 10 8 7 7 7 6 5 3 3 3 4 5 5 5 5 5 5 6 7 9 9 10 10 12 14 15 16 18 20 20 18 15 10 6 4 4 5 7 8 8 6 4 3 1 3 6 6 8 9 7 6 8 11 13 14 15 16 19 21 20 21 23 23 23 24 24 22 20 20 19 16 13 14 15 15 15 16 16 18 21 23 23 23 23 23
10 8 7 6 4 4 4 3 3 2 2 2 2 3 4 3 1 2 3 3 4 6 7 8 10 12 13 15 16 16 15 12 8 5 2 1 2 4 8 8 6 4 2 2 3 4 7 9 9 8 9 8 8 11 14 15 16 16 17 20 22 21 22 23 22 22 23 23 19 17 17 15 12 11 13 15 16 17 18 19 20 22 23 23 23 23 23
10 8 7 6 6 5 3 3 3 3 3 3 2 1 1 2 2 2 3 3 4 5 6 8 10 11 11 10 8 7 5 3 3 3 4 4 4 5 6 4 2 0 2 4 4 4 9 12 11 9 9 9 10 13 16 17 17 16 16 19 22 23 24 24 23 21 19 17 14 13 12 10 9 11 13 15 17 19 20 21 21 21 22 22 23 22 21
10 8 8 7 6 5 3 3 4 3 4 4 3 2 2 3 2 2 3 3 5 7 7 8 8 7 6 4 3 3 3 3 4 5 5 4 3 3 2 1 1 3 4 4 3 6 10 12 10 9 9 10 11 13 15 15 16 16 17 18 20 22 23 21 19 16 13 12 12 11 8 6 9 11 13 15 17 19 20 21 21 21 21 22 22 21 19
9 8 7 7 7 6 3 3 4 4 4 4 3 3 3 2 3 4 4 4 5 5 5 4 4 4 4 4 4 5 5 4 4 3 3 3 3 3 2 2 3 5 6 6 6 7 9 8 7 8 10 10 11 12 13 13 14 16 17 16 14 14 14 14 12 10 9 8 9 6 4 6 9 11 13 15 17 19 21 21 21 22 22 22 21 19 17
8 8 7 7 7 6 4 3 3 4 4 4 3 4 4 3 3 3 3 4 5 5 4 3 3 4 4 4 4 4 3 3 2 1 2 3 5 5 5 4 5 8 9 9 8 8 7 6 7 8 9 11 12 12 12 13 15 15 13 11 9 9 11 11 8 5 3 2 3 6 8 9 10 12 13 15 18 21 22 22 23 23 22 20 18 17 17
6 7 7 6 6 5 4 3 3 2 2 2 2 2 3 4 4 5 6 6 6 6 5 4 4 4 3 3 4 4 3 1 2 3 4 5 6 6 5 4 5 7 9 9 8 6 6 7 8 9 10 12 14 14 15 16 15 13 11 10 7 7 10 10 7 4 4 5 8 11 12 12 13 13 15 18 21 23 24 25 24 23 21 19 19 19 19
5 4 5 6 5 4 3 2 1 2 4 6 7 8 8 8 8 8 8 7 7 6 6 7 7 7 6 6 5 4 3 3 3 4 5 4 4 3 2 1 3 6 8 7 5 5 6 8 10 11 13 14 16 17 18 17 13 11 12 11 7 6 7 7 6 6 7 9 12 13 14 14 16 17 20 22 24 25 24 24 23 23 23 22 20 20 21
4 4 5 5 4 3 4 6 7 9 10 10 10 10 10 10 10 10 8 8 8 8 10 11 10 7 6 6 5 4 4 3 3 4 3 2 1 0 0 1 4 6 6 5 4 6 8 10 12 14 16 17 18 19 18 15 11 10 12 11 8 7 7 8 8 9 10 12 13 14 14 16 17 19 22 23 23 24 24 23 23 23 24 23 21 18 19
5 5 6 6 7 9 11 12 13 12 12 11 11 11 11 11 11 10 9 9 10 10 11 11 9 7 6 6 4 4 4 3 2 1 0 1 2 2 2 4 4 4 3 3 4 7 10 12 13 15 17 18 19 19 17 15 10 8 11 11 10 9 9 10 10 10 10 12 13 14 15 16 17 19 20 20 21 23 24 24 22 20 20 20 20 18 17
9 10 11 12 13 14 15 15 14 14 13 13 13 12 11 11 11 10 9 9 9 9 9 9 8 7 7 5 3 4 6 4 2 1 2 3 4 3 4 4 3 2 2 3 5 8 10 13 14 16 17 18 18 18 16 14 10 5 8 10 10 10 9 10 11 10 11 12 13 13 14 15 16 17 18 18 19 22 24 23 21 19 17 17 18 18 17
Wind_Direction
293 294 294 294 295 295 296 296 296 296 296 296 297 298 298 298 298 297 297 296 295 294 292 291 289 287 286 283 281 279 278 276 275 274 273 273 272 272 271 270 270 269 269 269 268 268 269 269 269 269 269 268 268 268 267 266 265 264 264 264 265 265 265 266 267 268 269 271 271 272 273 274 276 276 275 277 279 279 278 277 275 273 272 274 275 273 271
292 293 293 293 293 294 295 295 295 295 295 296 297 297 298 298 298 297 297 296 295 294 292 290 288 287 285 283 281 279 277 276 275 274 273 273 272 271 271 270 270 269 269 268 268 269 269 269 269 269 269 268 268 267 267 266 266 265 265 266 266 266 266 266 267 267 268 269 272 273 273 273 274 275 275 277 279 280 279 279 280 278 276 276 275 273 272
291 291 291 291 292 293 294 294 295 296 296 296 296 297 297 297 297 297 296 296 295 293 292 290 288 287 285 282 280 279 277 276 275 274 274 273 272 271 271 270 270 269 269 268 268 268 268 269 269 269 269 269 268 268 267 267 267 266 266 266 266 266 267 268 269 269 268 270 273 275 275 274 275 276 277 277 279 280 281 280 280 278 277 276 274 272 271
289 289 289 289 291 292 293 294 295 295 296 296 296 296 296 295 296 295 295 295 294 293 291 289 288 286 284 282 281 279 278 277 276 275 274 273 273 272 271 271 270 270 269 269 269 268 268 269 269 269 269 270 269 269 268 268 268 267 267 267 267 268 268 270 271 271 271 271 272 274 276 277 277 278 278 279 280 281 280 279 278 276 275 274 272 272 272
287 287 287 288 290 291 292 292 293 294 295 295 295 294 295 295 295 295 295 294 293 292 290 288 287 285 283 282 281 279 277 277 276 275 274 274 273 272 272 271 271 270 270 269 269 269 268 268 269 269 269 270 270 269 269 269 269 269 269 269 270 271 272 273 275 274 274 274 274 275 277 279 279 280 280 280 280 280 278 276 274 273 272 270 268 269 271
287 287 287 288 289 290 290 291 292 293 293 293 293 293 293 294 294 294 294 293 292 291 289 287 285 284 282 281 280 278 276 276 275 275 274 273 273 272 272 271 270 270 270 269 269 268 268 268 268 268 268 269 269 269 270 269 269 270 271 271 272 274 276 278 278 277 276 277 278 279 280 280 281 282 282 282 282 281 278 275 273 272 272 270 267 267 268
289 288 288 288 289 289 289 290 291 292 292 291 292 292 293 293 293 293 293 292 292 290 289 287 285 283 281 279 278 277 276 275 275 275 274 273 272 272 271 270 270 269 269 268 268 268 268 268 268 267 267 268 269 269 270 270 271 271 273 275 275 277 280 280 280 280 278 279 282 283 282 282 282 283 285 286 285 281 277 276 275 273 271 270 268 265 265
290 289 289 288 289 289 289 289 290 291 290 290 290 291 292 292 292 292 292 291 290 289 288 286 284 283 281 279 278 277 276 275 275 274 273 272 272 271 270 270 269 268 268 267 267 267 267 267 267 267 267 268 268 269 270 272 273 275 276 278 279 281 282 283 284 283 280 281 284 284 284 284 283 285 289 289 284 279 278 277 276 274 271 269 267 265 263
290 289 289 289 288 288 289 289 289 289 289 289 290 291 292 291 291 291 290 289 289 287 286 285 284 282 281 280 278 277 275 275 274 273 272 272 271 271 270 269 268 267 267 266 266 266 266 266 266 266 266 266 268 269 271 273 276 278 280 281 282 283 284 285 286 284 282 283 284 284 284 283 284 289 292 287 281 280 279 278 275 274 273 270 268 267 266
290 290 289 289 289 289 289 289 289 288 288 288 289 290 291 291 290 289 288 288 287 286 285 284 282 281 281 279 278 277 276 274 273 272 272 271 271 271 270 269 268 267 266 266 266 266 266 265 265 265 266 267 268 271 273 275 278 281 283 285 285 286 286 286 286 285 284 283 283 283 282 281 287 294 290 282 279 279 277 276 275 275 273 271 268 267 268
290 289 289 289 289 289 289 288 288 287 287 288 289 290 290 290 289 288 287 286 285 285 284 283 281 280 279 278 277 276 275 274 273 272 272 271 270 269 268 268 267 266 266 266 266 265 265 266 266 267 268 269 270 272 275 277 280 283 285 287 287 287 287 286 285 285 285 284 283 281 279 283 292 292 283 276 276 274 273 273 274 273 272 271 269 267 266
289 289 288 288 288 288 288 287 286 286 287 288 289 289 289 289 288 287 286 285 284 284 282 281 280 279 277 276 276 275 275 274 273 272 271 270 269 268 267 266 266 265 266 266 266 266 266 267 268 269 270 272 273 275 277 279 282 284 286 286 287 287 286 285 283 283 284 284 282 278 279 286 290 283 274 272 273 272 272 273 272 272 271 270 270 268 265
288 288 287 287 287 287 286 285 285 286 287 288 288 288 288 288 286 285 285 284 283 283 282 281 280 278 277 276 276 275 274 274 273 272 271 270 269 268 267 266 266 266 267 267 267 267 267 268 269 271 273 275 276 278 280 282 283 285 286 286 286 285 283 282 282 282 283 282 278 275 278 283 281 275 273 273 273 273 272 271 269 269 269 267 268 267 266
287 287 287 286 286 285 285 285 285 286 287 288 288 288 288 286 285 284 283 282 282 281 280 279 279 278 277 276 275 275 274 273 272 272 270 269 269 268 267 267 267 267 268 268 268 268 269 270 272 274 276 278 280 281 282 283 284 285 286 285 283 281 279 279 280 279 278 276 273 273 275 277 276 274 273 274 275 275 272 271 270 268 267 266 265 265 265
286 286 286 285 285 284 284 285 286 287 288 288 287 287 286 285 284 282 281 281 280 280 279 278 278 278 277 275 275 274 273 272 271 270 269 268 267 267 267 268 268 268 269 269 269 270 272 273 275 277 278 280 282 283 284 284 285 285 284 282 280 278 277 276 276 275 274 271 269 270 271 273 275 273 272 275 278 276 274 271 269 267 266 266 264 265 266
284 284 284 284 285 285 285 286 286 287 287 287 286 285 284 283 281 280 280 280 279 279 279 278 278 277 276 275 274 273 272 271 270 269 268 267 267 267 268 269 269 270 270 271 272 273 274 276 277 278 280 282 283 283 284 284 283 283 281 279 277 276 275 273 271 270 270 268 269 269 270 273 275 274 276 278 278 276 275 272 269 267 267 265 264 264 265
283 284 284 285 285 286 286 286 286 286 286 285 285 284 282 281 280 279 279 279 279 279 279 279 278 276 275 274 274 273 271 270 270 269 268 268 269 269 269 270 271 272 272 273 274 275 276 277 278 279 281 282 282 282 282 282 281 281 280 277 274 273 272 270 268 268 268 267 268 269 270 272 272 274 277 278 277 276 274 273 272 270 268 266 263 262 263
283 284 285 285 286 286 287 287 286 286 285 284 283 283 281 280 280 280 280 280 280 279 279 279 277 276 274 273 272 271 271 270 270 270 271 271 271 271 272 272 273 274 274 274 275 276 277 278 279 280 281 281 280 280 281 280 279 279 277 274 273 271 269 267 268 269 268 267 269 271 271 270 271 273 275 276 275 274 273 272 272 271 269 268 266 264 264
284 284 285 286 287 287 287 286 286 285 284 283 283 282 282 282 282 281 281 280 280 279 279 278 276 274 273 272 271 270 270 271 271 272 272 272 272 273 274 274 274 275 275 275 276 276 277 278 279 279 279 279 278 277 277 277 277 276 275 274 274 272 269 267 268 268 268 268 269 270 269 270 271 272 274 274 273 272 270 270 271 270 269 269 268 267 267
284 285 286 286 286 286 286 285 284 284 284 283 283 283 284 283 283 282 281 280 279 278 277 276 274 273 272 271 271 270 271 271 272 272 273 274 274 275 275 274 275 275 275 275 276 276 276 277 277 276 276 276 275 274 274 275 275 275 275 274 273 272 270 268 268 270 270 269 267 268 270 272 272 272 272 272 271 271 270 270 270 269 268 267 267 266 266
284 285 285 285 285 285 284 284 285 285 285 284 284 284 284 283 282 281 280 279 278 277 276 274 273 273 273 273 272 272 272 272 273 274 274 275 275 275 274 274 275 274 274 274 274 274 275 275 274 274 274 273 272 272 273 274 274 275 274 273 272 271 270 270 270 270 269 267 267 269 273 274 272 271 270 270 270 270 270 268 268 269 267 265 265 265 264
284 284 284 284 284 285 285 285 285 285 285 284 283 283 282 282 281 280 279 278 278 277 275 274 274 274 274 275 274 273 273 274 274 275 276 276 276 276 276 276 275 274 273 273 271 270 270 270 271 271 271 272 272 272 273 274 275 274 273 271 271 270 270 270 269 268 268 268 270 270 270 270 270 270 269 268 269 268 268 267 266 267 267 265 265 264 264
284 284 284 285 285 285 285 285 285 284 284 283 283 282 282 282 281 281 280 280 279 277 276 276 275 275 275 276 276 276 276 276 276 277 276 277 277 277 277 275 273 272 271 270 269 268 268 269 270 270 270 271 272 272 273 273 274 274 272 271 270 271 270 270 270 270 270 271 272 271 270 270 271 272 271 271 270 268 268 268 267 265 265 264 263 263 263
284 284 285 285 285 285 284 284 284 283 283 283 283 283 282 282 282 282 281 280 279 278 277 277 278 277 277 276 276 277 278 277 277 277 276 277 277 276 275 272 270 270 270 268 268 268 268 268 270 270 269 270 271 271 272 273 273 273 272 270 271 272 271 271 272 273 273 273 273 274 274 273 273 273 272 272 270 269 268 267 266 264 262 261 261 261 261
284 284 284 285 284 284 284 283 283 283 283 283 283 283 283 283 282 282 281 281 280 279 278 278 278 278 277 276 276 277 278 277 277 276 275 275 275 274 272 271 270 270 269 267 268 268 268 268 268 269 270 270 270 271 272 272 271 271 271 271 272 273 272 274 275 275 275 275 274 274 274 273 272 271 270 269 268 267 266 264 263 261 260 260 260 260 260
284 284 284 284 284 283 283 283 283 283 283 283 283 283 283 283 282 282 281 281 280 280 279 279 279 278 277 277 277 278 277 277 276 275 273 272 271 270 269 269 269 268 267 267 268 268 269 268 268 269 270 271 270 270 271 271 271 271 271 272 273 273 275 279 280 277 275 274 274 275 275 273 271 271 270 268 267 266 265 263 262 261 260 260 260 260 260
284 284 284 284 284 284 284 284 284 284 284 283 283 283 283 282 282 282 282 281 281 280 281 280 279 278 277 277 277 277 275 274 274 273 272 270 269 268 267 267 267 267 267 267 267 267 268 268 269 270 271 271 270 270 271 272 272 271 271 273 275 276 277 279 279 277 276 276 276 277 276 273 271 270 270 268 267 265 264 262 262 261 260 261 261 260 260
284 284 284 284 284 284 284 284 284 284 283 283 283 283 282 282 283 282 282 281 280 280 281 280 278 276 276 276 275 275 275 274 273 271 271 270 269 268 267 266 265 265 265 265 266 266 267 268 269 269 270 270 271 271 272 272 272 271 272 275 277 278 277 276 278 279 278 277 276 275 273 271 269 268 268 267 267 266 265 264 263 261 261 261 261 260 259
284 284 284 284 284 284 284 284 284 284 283 283 283 282 282 283 283 282 281 280 280 280 279 278 276 275 275 275 274 273 273 273 273 271 270 269 268 268 267 266 264 264 264 264 265 265 266 267 268 268 269 271 272 272 272 272 273 273 275 277 278 279 279 278 279 279 278 275 272 269 268 268 268 266 266 266 267 268 268 268 266 264 262 260 258 257 256
284 284 285 285 285 285 284 284 284 283 283 283 282 282 282 283 282 281 280 279 278 277 277 277 277 276 275 274 273 272 271 270 271 270 269 268 268 267 266 266 265 265 264 264 264 265 265 266 267 268 271 274 275 274 273 274 274 275 278 280 281 282 282 280 277 273 270 267 265 263 265 267 268 268 269 270 270 270 271 271 270 268 264 260 256 253 253
286 286 285 285 285 285 284 284 284 283 283 283 283 283 283 282 281 281 280 278 277 276 277 277 278 277 276 273 272 271 270 268 268 269 268 267 267 266 266 265 265 265 264 264 264 264 264 266 268 270 271 273 274 275 276 275 275 278 284 286 285 282 278 272 266 262 260 259 260 263 266 268 270 271 273 274 273 272 273 274 274 271 267 262 256 252 249
287 286 286 286 285 285 285 285 284 284 284 284 284 284 284 284 282 280 278 276 276 276 276 275 275 274 273 272 271 270 268 266 266 266 268 268 268 268 267 267 266 265 264 264 264 265 267 268 269 270 272 273 275 276 276 276 280 286 289 284 278 271 263 257 254 254 255 258 262 267 271 274 276 277 278 278 276 276 277 276 274 270 266 261 255 248 244
286 286 286 286 286 286 286 286 286 286 285 285 285 285 285 283 279 277 274 272 270 268 266 266 267 266 267 269 270 269 267 265 266 266 267 269 271 271 271 270 269 268 267 266 267 268 268 269 270 272 275 277 278 278 279 281 286 286 279 270 264 256 249 248 250 254 257 262 270 276 279 282 283 283 285 286 284 281 279 275 271 266 261 256 250 242 237
286 286 286 287 287 287 287 287 287 286 286 285 285 283 280 276 273 271 268 266 264 260 257 257 259 262 265 267 267 267 267 267 267 267 267 269 272 275 276 274 273 273 272 271 271 270 271 272 275 276 276 277 278 281 284 287 284 277 270 266 259 251 246 249 254 260 265 270 276 279 281 283 284 286 290 292 290 284 278 274 270 264 255 248 242 234 229
287 287 288 288 288 288 288 288 287 285 284 283 281 277 273 271 269 267 264 262 260 257 255 254 255 259 263 263 262 263 264 263 266 269 272 274 275 278 278 278 278 278 278 276 275 275 276 277 278 277 277 277 279 282 284 282 275 271 269 265 256 250 250 255 261 267 270 272 271 273 276 278 280 283 286 288 288 286 279 273 268 260 249 239 232 225 221
288 288 289 289 289 289 288 287 285 283 282 281 278 276 274 272 270 268 265 262 259 256 253 251 251 255 259 259 257 257 257 260 267 273 276 278 279 280 281 283 283 282 280 278 277 277 277 276 276 277 277 277 276 278 281 280 277 275 273 267 258 254 256 260 264 265 266 266 268 271 274 275 275 276 277 278 280 282 280 271 262 253 239 226 219 216 214
289 289 289 289 290 289 288 286 283 283 283 282 280 278 277 274 271 268 264 261 258 255 249 244 243 248 252 250 249 252 258 264 269 273 275 278 280 281 281 281 279 277 277 277 277 275 272 270 270 270 263 252 252 267 284 294 297 289 281 275 269 265 262 263 264 265 267 270 274 276 276 276 275 274 274 274 273 273 273 266 252 237 223 212 208 207 209
290 290 291 290 289 287 286 284 284 285 286 285 282 280 277 272 267 263 262 261 259 252 241 233 234 241 245 245 249 255 261 265 268 271 275 276 277 276 276 275 274 274 276 277 275 269 261 256 250 220 208 238 255 272 287 302 312 304 293 284 276 272 272 271 273 277 281 282 281 280 281 281 279 274 271 270 267 264 262 251 232 218 208 201 199 201 206
289 290 290 288 286 286 287 287 289 290 289 288 287 285 279 272 265 261 259 256 249 239 226 221 226 235 240 244 249 254 258 261 265 269 271 272 272 273 274 275 275 275 272 264 252 233 202 191 185 170 214 262 271 274 285 304 317 312 301 290 279 275 278 279 280 284 289 289 287 286 286 285 281 271 263 260 257 254 249 236 218 207 200 194 193 197 202
288 288 286 284 286 290 291 291 293 295 295 295 298 299 291 276 263 250 237 226 217 211 208 209 215 224 232 240 247 253 257 261 264 268 271 273 273 274 273 272 267 251 202 183 197 195 177 170 165 129 321 298 286 281 293 309 314 309 299 289 280 276 277 278 277 277 282 285 287 288 287 283 276 264 252 246 244 242 238 229 215 202 194 190 190 193 196
285 281 279 282 289 295 295 294 298 302 305 316 347 20 44 75 125 161 180 189 193 197 202 207 211 221 231 239 245 254 260 262 264 269 276 278 276 270 259 242 210 161 148 164 192 200 187 151 22 358 344 328 311 307 311 309 306 301 295 288 280 274 272 274 275 276 280 284 286 288 287 282 271 252 238 233 231 230 228 222 211 199 191 188 187 188 192
273 266 266 275 287 290 289 292 298 307 332 19 55 68 73 84 104 121 138 164 182 190 200 212 221 226 232 238 245 254 261 263 264 268 272 275 270 236 189 164 147 136 140 164 189 212 7 5 356 342 335 329 321 322 320 309 300 295 292 288 283 278 275 276 278 280 284 286 285 283 283 279 264 239 224 221 219 218 218 214 206 197 190 185 184 187 193
245 244 247 249 253 260 269 286 298 300 312 349 33 53 56 58 90 150 151 163 184 192 203 221 230 233 239 247 253 258 260 259 254 246 217 175 178 163 151 143 138 136 118 54 39 18 360 353 345 335 331 325 311 310 313 309 302 297 292 290 289 287 284 282 282 283 285 286 284 280 278 271 252 226 215 212 209 208 209 208 201 194 187 184 186 190 193
225 232 230 232 241 241 246 285 320 318 294 291 303 335 71 88 119 174 181 194 218 227 232 241 244 244 246 249 249 246 236 211 164 129 121 127 140 141 135 135 152 318 12 24 36 17 353 345 339 333 331 320 306 303 307 307 305 302 297 295 296 295 292 290 289 288 285 281 278 278 274 256 226 207 203 202 202 202 203 201 195 189 185 185 186 187 187
223 226 221 226 233 228 234 281 302 297 282 276 272 243 190 167 178 212 222 234 243 242 241 244 242 236 228 212 169 125 105 98 90 83 86 104 127 129 117 95 351 7 12 15 14 352 341 336 333 333 332 325 316 313 312 312 311 309 305 303 301 299 299 298 294 287 279 272 269 269 259 219 196 191 189 191 193 194 193 191 188 185 182 180 179 179 178
227 225 215 216 220 223 240 272 272 270 273 270 260 247 237 233 242 248 247 243 231 218 213 214 205 178 153 135 112 81 57 44 41 33 26 39 66 84 88 75 55 38 22 6 354 348 343 340 344 348 344 338 330 324 322 327 329 323 316 315 316 314 313 313 304 289 278 271 261 245 199 169 172 175 176 179 182 182 182 181 178 174 172 171 172 174 173
221 212 201 202 216 232 255 267 263 274 281 274 263 261 257 247 233 216 193 175 164 151 137 128 129 122 110 100 93 76 41 12 9 18 23 37 60 83 99 93 60 35 15 360 358 2 3 359 357 354 347 340 334 331 335 344 344 336 333 343 352 346 340 340 338 325 304 264 197 162 147 150 158 161 164 170 172 171 169 167 163 161 162 166 170 173 173
205 205 206 214 228 246 262 265 270 281 272 241 217 196 175 159 141 127 122 121 120 113 107 110 119 118 112 104 94 87 77 73 98 102 90 77 78 87 98 88 47 19 2 356 1 7 1 355 356 357 351 343 339 341 350 356 355 355 1 8 3 346 344 353 8 36 72 111 136 143 144 146 149 150 153 157 158 156 154 154 155 158 163 170 176 178 179
184 194 211 223 234 242 242 231 172 131 129 129 129 128 122 112 105 104 106 111 111 109 120 137 140 134 132 131 123 116 127 145 137 119 104 88 78 80 92 72 8 356 351 352 0 4 359 0 3 3 358 352 349 353 3 10 14 16 14 10 0 353 2 17 43 72 96 114 128 136 142 146 148 150 150 150 150 150 153 157 160 164 170 175 179 181 181
185 192 201 209 206 179 151 135 128 126 125 122 120 113 99 90 96 107 119 131 130 126 131 139 138 128 126 140 155 168 169 155 129 114 106 88 45 130 190 330 343 346 344 346 1 11 12 11 7 1 359 357 355 1 14 27 32 21 15 16 22 34 50 64 75 85 104 118 124 132 141 146 148 151 151 151 153 157 160 163 166 171 176 179 177 173 175
182 173 166 157 141 130 125 121 119 117 111 106 105 100 93 100 117 129 136 140 136 129 131 139 140 131 129 140 160 171 162 138 100 78 53 282 272 270 307 333 345 346 337 345 9 17 15 11 5 360 359 359 356 2 22 44 48 19 12 26 43 56 74 92 94 91 104 119 126 132 142 147 150 153 156 158 162 165 164 165 169 178 186 186 179 172 174
142 135 131 126 122 119 117 114 112 108 105 110 117 118 117 126 136 137 134 135 136 134 138 146 148 137 125 119 133 164 161 142 100 22 301 290 289 298 318 334 351 351 334 355 13 13 7 5 3 359 357 356 353 358 21 53 72 33 3 23 47 62 81 105 113 106 105 115 122 129 138 146 150 151 152 155 162 165 167 169 175 184 192 192 185 179 179